Houlton, ME

6:14 PM EST on December 07, 2016 (GMT -0500)
Houlton International

Weather History for KHUL - April, 2013

Change the Weather History Date:

Wednesday, April 17, 2013

  Actual Average Record
Temperature  
Mean Temperature 40 °F 40 °F  
Max Temperature 55 °F 51 °F 80 °F (2012)
Min Temperature 25 °F 29 °F 8 °F (2003)
Degree Days  
Heating Degree Days 25 25  
Month to date heating degree days 530 492  
Since 1 July heating degree days 7710 8288  
Cooling Degree Days 0 0  
Month to date cooling degree days 0 0  
Year to date cooling degree days 0 0  
Moisture  
Dew Point 25 °F    
Average Humidity 49    
Maximum Humidity 76    
Minimum Humidity 22    
Precipitation  
Precipitation 0.00 in 0.12 in 0.99 in (1954)
Month to date precipitation 0.92 2.17  
Year to date precipitation 5.09 9.62  
Sea Level Pressure  
Sea Level Pressure 30.06 in    
Wind  
Wind Speed 10 mph (WNW)    
Max Wind Speed 24 mph    
Max Gust Speed 31 mph    
Visibility 10 miles    
Events      
T = Trace of Precipitation, MM = Missing Value Source: NWS Daily Summary

Daily Weather History Graph

Daily Weather History Graph

Search for Another Location

Airport or City:

Trip Planner

Search our weather history database for the weather conditions in past years. The results will help you decide how hot, cold, wet, or windy it might be!

Date:

Astronomy

Apr. 17, 2013 Rise Set
Actual Time 5:40 AM EDT 7:21 PM EDT
Civil Twilight 5:09 AM EDT 7:53 PM EDT
Nautical Twilight 4:30 AM EDT 8:31 PM EDT
Astronomical Twilight 3:49 AM EDT 9:13 PM EDT
Moon 10:44 AM EDT (4/17) 1:03 AM EDT (4/17)
Length of Visible Light 14h 43m
Length of Day
13h 40m
Waxing Crescent, 42% of the Moon is Illuminated
Apr 17
Waxing Crescent
Apr 18
First Quarter
Apr 25
Full
May 2
Last Quarter
May 9
New

Hourly Weather History & Observations

Time (EDT) Temp. Windchill Dew Point Humidity Pressure Visibility Wind Dir Wind Speed Gust Speed Precip Events Conditions
12:53 AM 43.0 °F 37.2 °F 39.9 °F 89% 29.85 in 10.0 mi SW 10.4 mph - 0.02 in   Overcast
1:01 AM 44.6 °F 39.7 °F 41.0 °F 87% 29.84 in 10.0 mi WSW 9.2 mph - N/A   Overcast
1:15 AM 44.6 °F 40.7 °F 41.0 °F 87% 29.84 in 10.0 mi SW 6.9 mph - N/A   Overcast
1:53 AM 46.0 °F 39.6 °F 39.0 °F 76% 29.86 in 10.0 mi West 15.0 mph 20.7 mph N/A   Mostly Cloudy
2:53 AM 43.0 °F 37.2 °F 36.0 °F 76% 29.88 in 10.0 mi West 10.4 mph - N/A   Mostly Cloudy
3:53 AM 39.9 °F 34.5 °F 32.0 °F 73% 29.91 in 10.0 mi WSW 8.1 mph - N/A   Clear
4:53 AM 39.0 °F 33.4 °F 30.0 °F 70% 29.94 in 10.0 mi West 8.1 mph - N/A   Clear
5:53 AM 37.9 °F 31.5 °F 28.9 °F 70% 29.95 in 10.0 mi WSW 9.2 mph - N/A   Clear
6:53 AM 39.0 °F 34.0 °F 28.9 °F 67% 29.98 in 10.0 mi West 6.9 mph - N/A   Clear
7:53 AM 42.1 °F 35.7 °F 30.0 °F 62% 30.00 in 10.0 mi West 11.5 mph 18.4 mph N/A   Clear
8:53 AM 44.1 °F 37.7 °F 28.9 °F 55% 30.02 in 10.0 mi NW 12.7 mph 20.7 mph N/A   Mostly Cloudy
9:53 AM 48.2 °F - 28.4 °F 46% 30.01 in 10.0 mi WNW 13.8 mph 27.6 mph N/A   Mostly Cloudy
10:53 AM 48.9 °F - 27.0 °F 43% 30.04 in 10.0 mi NNW 16.1 mph 31.1 mph N/A   Partly Cloudy
11:53 AM 50.0 °F - 26.1 °F 39% 30.04 in 10.0 mi NNW 17.3 mph 31.1 mph N/A   Partly Cloudy
12:53 PM 52.0 °F - 24.1 °F 34% 30.05 in 10.0 mi WNW 16.1 mph 28.8 mph N/A   Clear
1:53 PM 55.0 °F - 24.1 °F 30% 30.05 in 10.0 mi NW 12.7 mph 20.7 mph N/A   Partly Cloudy
2:53 PM 54.0 °F - 18.0 °F 24% 30.06 in 10.0 mi NNW 19.6 mph 27.6 mph N/A   Clear
3:53 PM 52.0 °F - 18.0 °F 26% 30.11 in 10.0 mi NW 12.7 mph 26.5 mph N/A   Clear
4:53 PM 51.1 °F - 15.1 °F 24% 30.14 in 10.0 mi North 13.8 mph 28.8 mph N/A   Clear
5:53 PM 50.0 °F - 14.0 °F 24% 30.18 in 10.0 mi NNW 12.7 mph 26.5 mph N/A   Clear
6:53 PM 46.0 °F 40.2 °F 12.0 °F 25% 30.23 in 10.0 mi NNW 12.7 mph 20.7 mph N/A   Clear
7:53 PM 41.0 °F 36.4 °F 12.0 °F 31% 30.25 in 10.0 mi NNW 6.9 mph - N/A   Clear
8:53 PM 39.0 °F 36.8 °F 12.9 °F 34% 30.30 in 10.0 mi NNW 3.5 mph - N/A   Clear
9:53 PM 36.0 °F - 15.1 °F 43% 30.32 in 10.0 mi Calm Calm - N/A   Clear
10:53 PM 28.9 °F - 19.0 °F 67% 30.33 in 10.0 mi Calm Calm - N/A   Clear
11:53 PM 28.0 °F - 19.0 °F 69% 30.36 in 10.0 mi Calm Calm - N/A   Clear